TimeEST,TemperatureF,Dew PointF,Humidity,Sea Level PressureIn,VisibilityMPH,Wind Direction,Wind SpeedMPH,Gust SpeedMPH,PrecipitationIn,Events,Conditions,WindDirDegrees,DateUTC
12:20 AM,35.6,28.4,75,29.92,10.0,WSW,10.4,-,N/A,,Overcast,250,2013-02-15 05:20:00
12:53 AM,35.1,27.0,72,29.95,10.0,West,15.0,-,N/A,,Mostly Cloudy,280,2013-02-15 05:53:00
1:26 AM,33.8,24.8,70,29.93,10.0,West,16.1,-,N/A,,Scattered Clouds,270,2013-02-15 06:26:00
1:53 AM,34.0,23.0,64,29.95,10.0,WNW,13.8,-,N/A,,Partly Cloudy,290,2013-02-15 06:53:00
2:53 AM,30.9,23.0,72,29.97,10.0,West,9.2,-,N/A,,Clear,270,2013-02-15 07:53:00
3:53 AM,30.0,24.1,79,29.98,10.0,West,5.8,-,N/A,,Clear,270,2013-02-15 08:53:00
4:53 AM,30.0,21.9,72,29.98,10.0,West,6.9,-,N/A,,Clear,260,2013-02-15 09:53:00
5:53 AM,30.0,23.0,75,30.01,10.0,WSW,5.8,-,N/A,,Clear,240,2013-02-15 10:53:00
7:53 AM,28.9,24.1,82,30.04,10.0,WSW,5.8,-,N/A,,Mostly Cloudy,250,2013-02-15 12:53:00
8:53 AM,32.0,25.0,75,30.06,10.0,WSW,5.8,-,N/A,,Overcast,250,2013-02-15 13:53:00
9:53 AM,32.0,24.1,73,30.06,10.0,WNW,6.9,-,N/A,,Overcast,300,2013-02-15 14:53:00
10:53 AM,33.1,25.0,72,30.07,10.0,West,8.1,-,N/A,,Overcast,270,2013-02-15 15:53:00
11:53 AM,33.1,24.1,70,30.07,10.0,WNW,6.9,-,N/A,,Overcast,300,2013-02-15 16:53:00
12:50 PM,32.0,26.6,80,30.03,3.0,NNW,6.9,-,0.00,Snow,Light Snow,330,2013-02-15 17:50:00
12:53 PM,32.0,26.1,79,30.06,3.0,NNW,6.9,-,0.00,Snow,Light Snow,340,2013-02-15 17:53:00
1:15 PM,30.2,26.6,86,30.03,2.5,NNW,9.2,-,0.00,Snow,Light Snow,340,2013-02-15 18:15:00
1:32 PM,30.2,26.6,86,30.04,1.8,North,11.5,-,0.00,Snow,Light Snow,350,2013-02-15 18:32:00
1:53 PM,30.0,25.0,82,30.06,2.0,NNW,10.4,-,0.00,Snow,Light Snow,340,2013-02-15 18:53:00
2:07 PM,30.2,24.8,80,30.04,2.0,NNW,9.2,-,0.00,Snow,Light Snow,340,2013-02-15 19:07:00
2:33 PM,30.2,24.8,80,30.04,2.5,NNW,9.2,-,0.00,Snow,Light Snow,340,2013-02-15 19:33:00
2:53 PM,30.0,25.0,82,30.07,2.5,NNW,9.2,-,0.00,Snow,Light Snow,340,2013-02-15 19:53:00
3:00 PM,30.2,24.8,80,30.04,2.0,NNW,10.4,-,0.00,Snow,Light Snow,330,2013-02-15 20:00:00
3:09 PM,30.2,24.8,80,30.05,1.5,NNW,12.7,-,0.00,Snow,Light Snow,330,2013-02-15 20:09:00
3:23 PM,28.4,24.8,86,30.05,0.8,NNW,10.4,-,0.00,Snow,Light Snow,330,2013-02-15 20:23:00
3:30 PM,28.4,24.8,86,30.05,1.2,NNW,8.1,-,0.00,Snow,Light Snow,330,2013-02-15 20:30:00
3:42 PM,28.4,24.8,86,30.06,2.0,NW,9.2,-,0.00,Snow,Light Snow,320,2013-02-15 20:42:00
3:53 PM,28.9,25.0,85,30.09,2.5,NW,6.9,-,0.00,Snow,Light Snow,320,2013-02-15 20:53:00
4:00 PM,28.4,24.8,86,30.06,5.0,NNW,5.8,-,0.00,Snow,Light Snow,340,2013-02-15 21:00:00
4:53 PM,30.9,21.0,67,30.10,10.0,NNW,11.5,-,0.00,,Overcast,330,2013-02-15 21:53:00
5:53 PM,30.0,19.0,64,30.11,10.0,NW,11.5,-,N/A,,Overcast,320,2013-02-15 22:53:00
6:53 PM,30.0,21.0,69,30.12,10.0,WNW,12.7,-,N/A,,Overcast,300,2013-02-15 23:53:00
7:53 PM,28.9,18.0,64,30.14,10.0,NW,10.4,-,0.00,,Overcast,310,2013-02-16 00:53:00
8:53 PM,27.0,17.1,66,30.14,10.0,WNW,10.4,-,N/A,,Scattered Clouds,290,2013-02-16 01:53:00
9:53 PM,25.0,16.0,69,30.15,10.0,NW,10.4,-,N/A,,Clear,310,2013-02-16 02:53:00
10:53 PM,24.1,16.0,71,30.15,10.0,NW,9.2,-,N/A,,Clear,310,2013-02-16 03:53:00
11:53 PM,21.9,15.1,75,30.14,10.0,NW,3.5,-,N/A,,Clear,320,2013-02-16 04:53:00